FW5243 Weather Reports


time (UTC)temp
C
wind
direction
speed
KPH
gust
KPH
rain 1hr
cm
rain 24hr
cm
rain mn
cm
humidity
%
barometer
mb
20260507020036 7 360 0.0 0.0 0.00 0.48 0.48 94 1013.2
20260507014534 7 360 0.0 0.0 0.00 0.48 0.48 94 1013.6
20260507013036 7 360 0.0 0.0 0.00 0.48 0.48 93 1013.6
20260507011533 7 360 0.0 6.4 0.00 0.48 0.48 94 1013.4
20260507010036 7 77 0.0 8.0 0.00 0.48 0.48 93 1013.4
20260507004527 7 51 0.0 6.4 0.00 0.48 0.48 94 1013.2
20260507003025 7 80 0.0 3.2 0.00 0.48 0.48 94 1012.9
20260507001528 7 9 0.0 0.0 0.00 0.48 0.48 94 1012.5
20260507000025 7 59 0.0 6.4 0.00 0.48 0.48 94 1012.2
20260506234540 7 317 3.2 11.3 0.00 0.48 0.48 94 1012.2
20260506233018 7 350 1.6 9.7 0.00 0.48 0.48 94 1011.8
20260506231517 7 188 0.0 4.8 0.00 0.48 0.48 94 1011.9
20260506230017 7 56 3.2 9.7 0.03 0.48 0.48 94 1011.8
20260506224524 7 40 4.8 14.5 0.03 0.48 0.48 94 1011.7
20260506223012 7 50 3.2 9.7 0.03 0.48 0.48 94 1011.4
20260506221511 7 86 4.8 16.1 0.03 0.48 0.48 94 1011.0
20260506220110 7 344 3.2 16.1 0.05 0.46 0.46 94 1010.8
20260506214503 8 17 1.6 16.1 0.08 0.46 0.46 93 1010.6
20260506213059 8 70 3.2 12.9 0.10 0.46 0.46 94 1010.3
20260506211558 8 71 3.2 11.3 0.10 0.46 0.46 94 1010.1
20260506210054 8 104 3.2 9.7 0.10 0.41 0.41 94 1009.7
20260506204551 9 109 3.2 14.5 0.10 0.38 0.38 93 1009.4
20260506203056 9 100 1.6 14.5 0.08 0.36 0.36 93 1008.8
20260506201545 10 75 4.8 12.9 0.08 0.36 0.36 93 1008.6
20260506200043 10 360 6.4 25.7 0.03 0.30 0.30 91 1008.4
20260506194544 12 360 6.4 16.1 0.00 0.28 0.28 87 1008.3
20260506193042 15 84 8.0 14.5 0.00 0.28 0.28 86 1007.7
20260506191537 15 196 4.8 12.9 0.00 0.28 0.28 87 1007.2
20260506190038 15 360 3.2 16.1 0.00 0.28 0.28 88 1007.4
20260506184537 15 179 1.6 12.9 0.00 0.28 0.28 89 1007.4
20260506183038 15 360 4.8 9.7 0.00 0.28 0.28 89 1007.6
20260506181540 15 360 3.2 14.5 0.00 0.28 0.28 91 1007.6
20260506180033 14 130 1.6 8.0 0.00 0.28 0.28 94 1007.6
20260506174534 14 130 0.0 1.6 0.00 0.28 0.28 94 1007.6
20260506173038 14 128 0.0 3.2 0.00 0.28 0.28 94 1007.6
20260506171531 14 157 0.0 3.2 0.00 0.28 0.28 93 1007.5
20260506170030 14 136 0.0 6.4 0.00 0.28 0.28 93 1007.6
20260506164530 14 157 1.6 8.0 0.00 0.28 0.28 93 1007.7
20260506163029 13 166 0.0 11.3 0.03 0.28 0.28 93 1007.8
20260506161528 13 153 1.6 8.0 0.03 0.28 0.28 93 1007.9
20260506160037 14 153 0.0 4.8 0.05 0.28 0.28 94 1008.0
20260506154527 13 136 0.0 8.0 0.08 0.28 0.28 94 1007.8
20260506153026 13 146 0.0 6.4 0.05 0.25 0.25 94 1008.0
20260506151526 13 171 0.0 6.4 0.05 0.25 0.25 94 1008.1
20260506150025 13 162 0.0 8.0 0.03 0.23 0.23 94 1007.8
20260506144524 13 161 1.6 6.4 0.00 0.20 0.20 94 1008.0
20260506143024 13 160 0.0 4.8 0.05 0.20 0.20 94 1008.0
20260506141523 13 172 1.6 12.9 0.05 0.20 0.20 93 1008.0
20260506140022 12 124 1.6 9.7 0.08 0.20 0.20 93 1007.8
20260506134524 12 148 3.2 8.0 0.08 0.18 0.18 93 1007.9
20260506133020 12 130 0.0 4.8 0.08 0.15 0.15 92 1008.1
20260506131537 12 175 0.0 0.0 0.08 0.15 0.15 92 1008.6
20260506130034 12 180 0.0 0.0 0.08 0.13 0.13 92 1008.7
20260506124518 12 180 0.0 0.0 0.05 0.10 0.10 92 1008.9
20260506123017 12 180 0.0 0.0 0.05 0.08 0.08 92 1008.6
20260506121516 12 180 0.0 0.0 0.05 0.08 0.08 91 1008.4
20260506120019 12 244 0.0 0.0 0.05 0.05 0.05 90 1008.3
20260506114518 12 244 0.0 4.8 0.05 0.05 0.05 89 1008.6
20260506113012 12 244 1.6 4.8 0.03 0.03 0.03 87 1008.3
20260506111511 13 291 1.6 6.4 0.03 0.03 0.03 86 1008.4
20260506110008 13 355 1.6 4.8 0.00 0.00 0.00 85 1008.4
20260506104507 14 360 1.6 6.4 0.00 0.00 0.00 82 1008.5
20260506103007 13 360 3.2 6.4 0.00 0.00 0.00 82 1008.2
20260506101506 13 101 0.0 4.8 0.00 0.00 0.00 84 1008.1
20260506094503 14 99 0.0 0.0 0.00 0.00 0.00 83 1007.9
20260506093004 14 99 0.0 1.6 0.00 0.00 0.00 79 1008.0
20260506091501 15 360 0.0 3.2 0.00 0.00 0.00 80 1007.9
20260506090001 15 360 0.0 4.8 0.00 0.00 0.00 76 1007.9
20260506084600 16 99 1.6 8.0 0.00 0.00 0.00 66 1007.9
20260506083108 16 360 1.6 8.0 0.00 0.00 0.00 66 1008.1
20260506081558 14 329 0.0 0.0 0.00 0.00 0.00 75 1008.2
20260506073054 13 360 0.0 0.0 0.00 0.00 0.00 84 1007.9
20260506071553 13 328 0.0 0.0 0.00 0.00 0.00 85 1008.2
20260506061547 14 360 0.0 0.0 0.00 0.00 0.00 87 1008.7
20260506044535 15 332 0.0 3.2 0.00 0.00 0.00 77 1009.5
20260506043029 16 151 0.0 0.0 0.00 0.00 0.00 73 1009.3
20260506041526 17 151 0.0 3.2 0.00 0.00 0.00 69 1009.5
20260506040023 17 151 0.0 3.2 0.00 0.00 0.00 66 1009.7
20260506034522 18 149 0.0 11.3 0.00 0.00 0.00 65 1009.7
20260506033020 18 174 0.0 9.7 0.00 0.00 0.00 64 1009.4
20260506031520 18 236 3.2 8.0 0.00 0.00 0.00 64 1009.3
20260506030029 19 144 1.6 6.4 0.00 0.00 0.00 62 1009.4
20260506024534 20 143 0.0 6.4 0.00 0.00 0.00 60 1009.5
20260506023019 20 163 1.6 11.3 0.00 0.00 0.00 59 1009.6
20260506021518 20 200 1.6 9.7 0.00 0.00 0.00 59 1009.3